Tallulah, LA

6:33 PM CST on December 09, 2016 (GMT -0600)
Vicksburg Tallulah Regional

Weather History for KTVR - April, 2014

Change the Weather History Date:

Wednesday, April 16, 2014

  Actual Average Record
Temperature  
Mean Temperature 54 °F 65 °F  
Max Temperature 65 °F 76 °F 88 °F (2006)
Min Temperature 42 °F 53 °F 33 °F (2007)
Degree Days  
Heating Degree Days 11 3  
Month to date heating degree days 73 71  
Since 1 July heating degree days 2850 2312  
Cooling Degree Days 0 3  
Month to date cooling degree days 40 36  
Year to date cooling degree days 54 68  
Growing Degree Days 3 (Base 50)    
Moisture  
Dew Point 36 °F    
Average Humidity 59    
Maximum Humidity 83    
Minimum Humidity 34    
Precipitation  
Precipitation 0.00 in 0.18 in 1.74 in (1973)
Month to date precipitation 12.21 2.66  
Year to date precipitation 23.56 18.03  
Sea Level Pressure  
Sea Level Pressure 30.21 in    
Wind  
Wind Speed 5 mph (East)    
Max Wind Speed 17 mph    
Max Gust Speed 20 mph    
Visibility 10 miles    
Events      
T = Trace of Precipitation, MM = Missing Value Source: NWS Daily Summary

Daily Weather History Graph

Daily Weather History Graph

Search for Another Location

Airport or City:

Trip Planner

Search our weather history database for the weather conditions in past years. The results will help you decide how hot, cold, wet, or windy it might be!

Date:

Astronomy

Apr. 16, 2014 Rise Set
Actual Time 6:33 AM CDT 7:34 PM CDT
Civil Twilight 6:08 AM CDT 7:59 PM CDT
Nautical Twilight 5:38 AM CDT 8:29 PM CDT
Astronomical Twilight 5:07 AM CDT 9:00 PM CDT
Moon 9:13 PM CDT (4/16) 7:24 AM CDT (4/16)
Length of Visible Light 13h 51m
Length of Day
13h 00m
Full, 98% of the Moon is Illuminated
Apr 16
Full
Apr 22
Last Quarter
Apr 29
New
May 6
First Quarter
May 14
Full

Hourly Weather History & Observations

Time (CDT) Temp. Windchill Dew Point Humidity Pressure Visibility Wind Dir Wind Speed Gust Speed Precip Events Conditions
12:53 AM 46.0 °F 41.0 °F 34.0 °F 63% 30.25 in 10.0 mi NE 10.4 mph - N/A   Clear
1:53 AM 45.0 °F 40.6 °F 35.1 °F 68% 30.25 in 10.0 mi ENE 8.1 mph - N/A   Clear
2:53 AM 44.1 °F 40.1 °F 34.0 °F 68% 30.24 in 10.0 mi ENE 6.9 mph - N/A   Clear
3:53 AM 43.0 °F 37.7 °F 32.0 °F 65% 30.23 in 10.0 mi ENE 9.2 mph - N/A   Clear
4:53 AM 43.0 °F 37.7 °F 30.9 °F 62% 30.24 in 10.0 mi ENE 9.2 mph - N/A   Clear
5:53 AM 43.0 °F 38.8 °F 32.0 °F 65% 30.25 in 10.0 mi East 6.9 mph - N/A   Clear
6:53 AM 42.1 °F 37.7 °F 30.9 °F 65% 30.27 in 10.0 mi East 6.9 mph - N/A   Clear
7:53 AM 44.1 °F 39.0 °F 33.1 °F 65% 30.30 in 10.0 mi East 9.2 mph - N/A   Clear
8:53 AM 46.0 °F 39.9 °F 32.0 °F 58% 30.29 in 10.0 mi ESE 13.8 mph - N/A   Clear
9:53 AM 48.9 °F - 30.9 °F 50% 30.30 in 10.0 mi ESE 11.5 mph - N/A   Clear
10:53 AM 50.0 °F - 30.0 °F 46% 30.30 in 10.0 mi SE 10.4 mph - N/A   Clear
11:53 AM 53.1 °F - 32.0 °F 45% 30.28 in 10.0 mi Variable 3.5 mph - N/A   Clear
1:53 PM 57.0 °F - 33.1 °F 40% 30.22 in 10.0 mi Variable 4.6 mph - N/A   Clear
2:53 PM 59.0 °F - 32.0 °F 36% 30.18 in 10.0 mi Variable 5.8 mph - N/A   Clear
3:53 PM 61.0 °F - 34.0 °F 36% 30.15 in 10.0 mi SSE 3.5 mph - N/A   Clear
4:53 PM 63.0 °F - 33.1 °F 33% 30.15 in 10.0 mi Calm Calm - N/A   Clear
5:53 PM 64.0 °F - 36.0 °F 35% 30.14 in 10.0 mi ESE 3.5 mph - N/A   Clear
6:53 PM 63.0 °F - 35.1 °F 35% 30.13 in 10.0 mi Calm Calm - N/A   Clear
7:53 PM 59.0 °F - 39.9 °F 49% 30.12 in 10.0 mi ENE 4.6 mph - N/A   Clear
8:53 PM 55.9 °F - 46.0 °F 69% 30.13 in 10.0 mi Calm Calm - N/A   Clear
9:53 PM 55.0 °F - 50.0 °F 83% 30.15 in 10.0 mi ESE 4.6 mph - N/A   Clear
10:53 PM 53.1 °F - 48.0 °F 83% 30.17 in 10.0 mi Calm Calm - N/A   Clear
11:53 PM 53.1 °F - 46.9 °F 80% 30.18 in 10.0 mi Calm Calm - N/A   Clear